リニア彗星

256P/LINEAR (2013)

English version
Home page
Updated on February 6, 2012

---------------------------------------------------------------------

・ プロフィール

符号 256P/2012 B2
検出日 2012年1月26日
検出光度 19.8等
検出者 関勉、下元繁男、佐藤裕久(芸西)

・ 軌道要素

Epoch 2013 Mar. 9.0 TT = JDT 2456360.5
T 2013 Mar. 17.36390 TT                                 MPC
q   2.6899223            (2000.0)            P               Q
n   0.09899203     Peri.  124.11444     -0.80871779     +0.36819139
a   4.6280983      Node    81.44638     -0.56151870     -0.71546920
e   0.4187845      Incl.   27.63679     +0.17513503     -0.59374988
P   9.96
From 54 observations 2003 Jan. 27-2012 Jan. 29, mean residual 0".6.

・ 光度変化

        m1 = 12.8 + 5 logΔ + 10.0 log r

---------------------------------------------------------------------

軌道要素はM.P.E.C. 2012-C24に掲載されたものです。
光度グラフはComet for Windowsで作成したものです。

---------------------------------------------------------------------

Copyright(C) Seiichi Yoshida (comet@aerith.net). All rights reserved.